CAPE
0 0 0 0 0 0 0 0 0 0 0 0 0 0 0 0 0 0 0 0 0 0 0 0 0 0 0 0 0 0 0 0 0 0 0 0 0 3 0 4 33 1 0 0
0 0 0 0 0 0 0 0 0 0 0 0 0 0 0 0 0 0 0 0 0 0 0 0 0 0 0 0 0 0 0 0 0 0 0 0 1 2 3 1 0 0 0 0
0 0 0 0 0 0 0 0 0 0 0 0 0 0 0 0 0 0 0 0 0 0 0 0 0 0 0 0 0 0 0 0 0 0 0 0 0 0 1 0 2 0 0 0
0 0 0 0 0 0 0 0 0 0 0 0 0 0 0 0 0 0 0 0 0 0 0 0 0 0 0 0 0 0 0 0 0 0 0 0 0 0 0 3 3 0 0 0
0 0 0 0 0 0 0 0 0 0 0 0 0 0 0 0 0 0 0 0 0 0 0 0 0 0 0 0 0 0 0 0 0 0 0 0 0 0 0 1 1 0 0 0
0 0 0 0 0 0 0 0 0 0 0 0 0 0 0 0 0 0 0 0 0 0 0 0 0 0 0 0 0 0 0 0 0 0 0 0 2 0 0 0 0 0 0 0
0 0 0 0 0 0 0 0 0 0 0 0 0 0 0 0 0 0 0 0 0 0 0 0 0 0 0 0 0 0 0 0 0 0 0 0 0 0 0 1 4 1 0 0
0 0 0 0 0 0 0 0 0 0 0 0 0 0 0 0 0 0 0 0 0 0 0 0 0 0 0 0 0 0 0 0 0 0 0 0 0 0 0 0 5 4 0 0
0 0 0 0 0 0 0 0 0 0 0 0 0 0 0 0 0 0 0 0 0 0 0 0 0 0 0 2 0 0 0 0 0 0 0 0 0 0 0 0 1 3 0 0
0 0 0 0 0 0 0 0 0 0 0 0 0 0 0 0 0 0 0 0 0 0 0 0 0 0 0 0 0 0 0 0 0 0 0 0 0 0 0 0 0 2 1 0
0 0 0 0 0 0 0 0 0 0 0 0 0 0 0 0 0 0 0 0 0 0 0 0 0 2 0 0 0 0 0 0 0 0 0 0 0 0 0 0 0 3 2 0
0 0 0 0 0 0 0 0 0 0 0 0 0 0 0 0 0 0 0 0 0 0 0 0 1 0 0 0 0 0 0 0 0 1 0 0 0 0 0 0 0 5 0 0
0 0 0 0 0 0 0 0 0 0 0 0 0 0 0 0 0 0 0 0 0 0 0 0 0 1 1 0 0 0 0 1 0 0 0 0 0 0 0 1 0 1 0 0
0 0 0 0 0 0 0 0 0 0 0 0 0 0 0 0 0 0 0 0 0 0 0 0 0 0 0 0 1 1 0 1 1 3 0 0 0 0 0 0 6 1 1 0
0 0 0 0 0 0 0 0 0 0 0 0 0 0 0 0 0 0 0 0 0 0 0 0 0 0 0 0 1 1 2 1 2 0 0 0 0 0 0 2 1 1 0 0
0 0 0 0 0 0 0 0 0 0 0 0 0 0 0 0 0 0 0 0 0 0 0 0 0 0 0 0 1 2 1 2 0 0 0 0 0 0 3 4 1 1 2 0
0 0 0 0 0 0 0 0 0 0 0 0 0 0 0 0 0 0 0 0 0 0 0 0 0 0 0 1 2 2 2 2 0 0 0 0 0 3 25 2 1 2 2 2
0 0 0 0 0 0 0 0 0 0 0 0 0 0 0 0 0 0 0 0 0 0 0 0 0 0 0 1 2 2 3 0 0 0 0 0 0 9 11 1 1 1 1 2
0 0 0 0 0 0 0 0 0 0 0 0 0 0 0 0 0 0 0 0 0 0 0 0 0 0 0 1 3 2 0 0 0 2 0 0 15 6 1 2 2 2 2 3
0 0 0 0 0 0 0 0 0 0 0 0 0 0 0 0 0 0 0 0 0 0 0 0 0 0 1 3 1 0 0 0 2 0 0 13 17 1 2 1 1 2 2 2
0 0 0 0 0 0 0 0 0 0 0 0 0 0 0 0 0 0 0 0 0 0 0 0 0 1 4 0 0 0 0 7 0 37 6 4 1 1 1 0 1 2 2 2
0 0 0 0 0 0 0 0 0 0 0 0 0 0 0 0 0 0 0 0 0 0 0 0 0 0 0 1 0 3 46 44 25 4 1 2 0 1 1 3 3 2 1 2
0 0 0 0 0 0 0 0 0 0 0 0 0 0 0 0 0 0 0 0 0 0 0 0 0 0 1 5 8 0 0 1 1 1 0 0 0 0 1 1 2 0 0 2
0 0 0 0 0 0 0 0 0 0 0 0 0 0 0 0 0 0 0 0 0 0 0 0 0 1 3 5 5 3 1 0 0 0 1 1 0 0 1 2 3 0 1 1
0 0 0 0 0 0 0 0 0 0 0 0 0 0 0 0 0 0 0 0 0 0 0 0 0 1 2 3 2 2 2 2 0 0 1 1 1 0 0 1 1 0 1 0
0 0 0 0 0 0 0 0 0 0 0 0 0 0 0 0 0 0 0 0 0 0 0 0 0 0 1 2 3 5 3 3 0 0 1 0 0 1 2 2 1 0 0 1
CIN
-0 -0 -0 -0 -0 -0 -0 -0 -0 -0 -0 -0 -0 -0 -0 -0 -0 -0 -0 -0 -0 -0 -0 -0 -0 -0 -0 -0 -0 -0 -0 -0 -0 -0 -0 -0 -0 -0 -0 -0 -32 -0 -0 -0
-0 -0 -0 -0 -0 -0 -0 -0 -0 -0 -0 -0 -0 -0 -0 -0 -0 -0 -0 -0 -0 -0 -0 -0 -0 -0 -0 -0 -0 -0 -0 -0 -0 -0 -0 -0 -0 -0 -0 -0 -0 -0 -0 -0
-0 -0 -0 -0 -0 -0 -0 -0 -0 -0 -0 -0 -0 -0 -0 -0 -0 -0 -0 -0 -0 -0 -0 -0 -0 -0 -0 -0 -0 -0 -0 -0 -0 -0 -0 -0 -0 -0 -0 -0 -0 -0 -0 -0
-0 -0 -0 -0 -0 -0 -0 -0 -0 -0 -0 -0 -0 -0 -0 -0 -0 -0 -0 -0 -0 -0 -0 -0 -0 -0 -0 -0 -0 -0 -0 -0 -0 -0 -0 -0 -0 -0 -0 -0 -0 -0 -0 -0
-0 -0 -0 -0 -0 -0 -0 -0 -0 -0 -0 -0 -0 -0 -0 -0 -0 -0 -0 -0 -0 -0 -0 -0 -0 -0 -0 -0 -0 -0 -0 -0 -0 -0 -0 -0 -0 -0 -0 -0 -0 -0 -0 -0
-0 -0 -0 -0 -0 -0 -0 -0 -0 -0 -0 -0 -0 -0 -0 -0 -0 -0 -0 -0 -0 -0 -0 -0 -0 -0 -0 -0 -0 -0 -0 -0 -0 -0 -0 -0 -0 -0 -0 -0 -0 -0 -0 -0
-0 -0 -0 -0 -0 -0 -0 -0 -0 -0 -0 -0 -0 -0 -0 -0 -0 -0 -0 -0 -0 -0 -0 -0 -0 -0 -0 -0 -0 -0 -0 -0 -0 -0 -0 -0 -0 -0 -0 -0 -0 -0 -0 -0
-0 -0 -0 -0 -0 -0 -0 -0 -0 -0 -0 -0 -0 -0 -0 -0 -0 -0 -0 -0 -0 -0 -0 -0 -0 -0 -0 -0 -0 -0 -0 -0 -0 -0 -0 -0 -0 -0 -0 -0 -0 -0 -0 -0
-0 -0 -0 -0 -0 -0 -0 -0 -0 -0 -0 -0 -0 -0 -0 -0 -0 -0 -0 -0 -0 -0 -0 -0 -0 -0 -0 -0 -0 -0 -0 -0 -0 -0 -0 -0 -0 -0 -0 -0 -0 -0 -0 -0
-0 -0 -0 -0 -0 -0 -0 -0 -0 -0 -0 -0 -0 -0 -0 -0 -0 -0 -0 -0 -0 -0 -0 -0 -0 -0 -0 -0 -0 -0 -0 -0 -0 -0 -0 -0 -0 -0 -0 -0 -0 -0 -0 -0
-0 -0 -0 -0 -0 -0 -0 -0 -0 -0 -0 -0 -0 -0 -0 -0 -0 -0 -0 -0 -0 -0 -0 -0 -0 -1 -0 -0 -0 -0 -0 -0 -0 -0 -0 -0 -0 -0 -0 -0 -0 -0 -0 -0
-0 -0 -0 -0 -0 -0 -0 -0 -0 -0 -0 -0 -0 -0 -0 -0 -0 -0 -0 -0 -0 -0 -0 -0 -0 -0 -0 -0 -0 -0 -0 -0 -0 -0 -0 -0 -0 -0 -0 -0 -0 -13 -0 -0
-0 -0 -0 -0 -0 -0 -0 -0 -0 -0 -0 -0 -0 -0 -0 -0 -0 -0 -0 -0 -0 -0 -0 -0 -0 -0 -0 -0 -0 -0 -0 -4 -0 -0 -0 -0 -0 -0 -0 -1 -0 -0 -0 -0
-0 -0 -0 -0 -0 -0 -0 -0 -0 -0 -0 -0 -0 -0 -0 -0 -0 -0 -0 -0 -0 -0 -0 -0 -0 -0 -0 -0 -0 -0 -0 -1 -0 -0 -0 -0 -0 -0 -0 -0 -0 -0 -0 -0
-0 -0 -0 -0 -0 -0 -0 -0 -0 -0 -0 -0 -0 -0 -0 -0 -0 -0 -0 -0 -0 -0 -0 -0 -0 -0 -0 -0 -0 -0 -0 -5 -0 -0 -0 -0 -0 -0 -0 -0 -0 -0 -0 -0
-0 -0 -0 -0 -0 -0 -0 -0 -0 -0 -0 -0 -0 -0 -0 -0 -0 -0 -0 -0 -0 -0 -0 -0 -0 -0 -0 -0 -0 -0 -0 -0 -0 -0 -0 -0 -0 -0 -0 -9 -0 -0 -0 -0
-0 -0 -0 -0 -0 -0 -0 -0 -0 -0 -0 -0 -0 -0 -0 -0 -0 -0 -0 -0 -0 -0 -0 -0 -0 -0 -0 -0 -0 -0 -0 -0 -0 -0 -0 -0 -0 -0 -6 -36 -0 -0 -0 -0
-0 -0 -0 -0 -0 -0 -0 -0 -0 -0 -0 -0 -0 -0 -0 -0 -0 -0 -0 -0 -0 -0 -0 -0 -0 -0 -0 -0 -0 -0 -0 -0 -0 -0 -0 -0 -0 -3 -32 -0 -0 -0 -0 -0
-0 -0 -0 -0 -0 -0 -0 -0 -0 -0 -0 -0 -0 -0 -0 -0 -0 -0 -0 -0 -0 -0 -0 -0 -0 -0 -0 -0 -0 -0 -0 -0 -0 -0 -0 -0 -28 -23 -10 -0 -0 -0 -0 -0
-0 -0 -0 -0 -0 -0 -0 -0 -0 -0 -0 -0 -0 -0 -0 -0 -0 -0 -0 -0 -0 -0 -0 -0 -0 -0 -0 -0 -0 -0 -0 -0 -0 -0 -0 -11 -17 -0 -0 -0 -0 -0 -0 -0
-0 -0 -0 -0 -0 -0 -0 -0 -0 -0 -0 -0 -0 -0 -0 -0 -0 -0 -0 -0 -0 -0 -0 -0 -0 -0 -0 -0 -0 -6 -2 -0 -0 -0 -33 -35 -2 -0 -0 -0 -0 -0 -0 -0
-0 -0 -0 -0 -0 -0 -0 -0 -0 -0 -0 -0 -0 -0 -0 -0 -0 -0 -0 -0 -0 -0 -0 -0 -0 -0 -0 -0 -0 -0 -0 -1 -0 -0 -0 -0 -0 -0 -0 -0 -0 -0 -0 -0
-0 -0 -0 -0 -0 -0 -0 -0 -0 -0 -0 -0 -0 -0 -0 -0 -0 -0 -0 -0 -0 -0 -0 -0 -0 -0 -0 -0 -0 -0 -0 -0 -0 -0 -0 -0 -0 -0 -0 -0 -0 -0 -0 -0
-0 -0 -0 -0 -0 -0 -0 -0 -0 -0 -0 -0 -0 -0 -0 -0 -0 -0 -0 -0 -0 -0 -0 -0 -0 -0 -0 -0 -0 -0 -0 -0 -0 -0 -0 -0 -0 -0 -0 -0 -0 -0 -0 -0
-0 -0 -0 -0 -0 -0 -0 -0 -0 -0 -0 -0 -0 -0 -0 -0 -0 -0 -0 -0 -0 -0 -0 -0 -0 -0 -0 -0 -0 -0 -0 -0 -0 -0 -0 -0 -0 -0 -0 -0 -0 -0 -0 -0
-0 -0 -0 -0 -0 -0 -0 -0 -0 -0 -0 -0 -0 -0 -0 -0 -0 -0 -0 -0 -0 -0 -0 -0 -0 -0 -0 -0 -0 -0 -0 -0 -0 -0 -0 -0 -0 -0 -0 -0 -0 -0 -0 -0
Wind_Speed
36 44 47 42 37 35 36 32 31 28 22 35 28 25 32 22 21 25 28 31 33 35 35 36 36 38 39 39 39 39 40 38 43 43 43 38 45 42 29 38 41 40 37 34
38 45 39 33 33 38 37 33 33 25 30 32 26 30 26 21 17 22 30 33 37 39 41 42 41 39 41 42 41 41 40 41 42 43 44 43 43 38 37 35 48 42 40 37
42 39 36 36 36 43 39 31 32 30 33 24 31 26 25 19 17 16 26 32 37 41 46 48 48 45 43 44 44 43 43 46 45 44 46 44 43 42 42 35 45 48 43 40
38 36 38 37 38 41 38 27 30 29 26 29 30 26 20 14 8 8 15 35 42 48 49 49 48 48 46 46 46 46 45 45 46 45 47 48 47 49 43 37 37 46 43 41
43 39 39 39 38 38 30 29 30 21 22 25 25 25 17 15 15 15 15 14 17 42 52 48 48 48 49 47 47 49 48 49 48 47 48 52 53 45 42 38 35 44 45 42
40 32 32 35 35 32 33 32 25 22 25 27 22 27 16 18 19 19 19 22 26 37 29 44 48 49 48 47 47 50 51 50 51 52 53 55 54 48 41 34 32 50 47 44
43 37 33 35 39 31 36 39 35 31 32 28 17 22 15 17 20 21 23 29 30 27 31 47 46 49 49 49 48 48 51 54 52 53 53 55 53 52 45 38 39 50 50 47
52 49 40 37 38 36 34 36 34 35 33 27 15 21 22 21 21 23 29 32 31 30 34 51 50 50 50 51 49 50 52 55 54 56 56 56 56 51 48 45 41 47 54 47
47 43 33 32 35 31 33 36 24 27 23 24 21 18 19 21 25 35 36 37 35 33 31 50 50 51 51 49 51 51 53 55 56 57 57 56 58 48 51 47 41 37 48 46
37 45 34 35 32 30 30 26 32 28 33 32 26 24 22 29 35 41 38 41 39 37 35 31 49 48 47 49 49 50 52 55 56 58 57 58 58 56 48 46 44 42 53 48
35 37 41 38 37 35 31 31 29 24 22 29 32 27 26 31 41 38 40 43 41 39 34 33 32 47 47 45 46 49 51 54 57 58 59 61 59 54 49 47 43 44 48 49
33 35 46 43 32 27 28 28 28 30 26 23 21 24 25 35 37 38 41 42 40 36 33 29 23 44 41 41 42 45 48 53 57 57 59 63 57 55 48 48 44 46 53 47
33 39 51 49 37 32 31 28 26 21 19 23 25 25 30 33 37 39 43 41 39 34 30 25 25 41 39 38 39 42 47 52 55 57 57 58 57 51 50 50 47 48 48 44
29 35 40 45 40 35 36 30 25 21 23 23 26 33 33 35 39 43 42 40 39 34 30 27 22 38 37 35 36 39 46 51 55 57 58 58 53 49 47 41 42 44 39 42
31 38 37 35 32 33 30 31 26 23 19 28 28 26 31 37 41 42 42 41 41 36 33 27 22 35 34 32 32 36 43 50 55 57 59 58 51 48 44 40 29 35 36 38
30 38 40 43 37 36 35 30 28 25 24 24 21 24 28 38 41 42 42 44 40 38 35 29 23 30 32 30 31 34 39 48 53 59 59 55 49 52 47 33 29 34 36 36
33 38 44 47 44 39 42 32 34 30 27 22 23 25 36 38 39 41 41 42 40 38 35 29 22 31 29 28 29 33 37 46 55 56 55 48 44 46 42 34 28 26 32 33
32 37 38 44 48 51 34 28 34 34 28 19 23 30 35 36 34 35 38 43 39 37 35 27 24 25 25 25 27 31 38 46 52 52 49 44 42 41 39 27 28 28 26 31
23 34 40 45 48 36 34 34 43 42 31 21 29 30 34 34 32 36 40 39 37 36 29 27 22 18 18 19 24 33 43 46 49 50 47 44 43 40 36 34 27 25 22 30
30 28 35 40 47 48 36 36 39 31 29 25 26 29 37 37 40 40 47 43 39 36 30 24 19 10 10 13 24 37 48 48 47 45 43 41 40 41 34 29 27 20 17 18
36 35 38 38 41 35 29 38 38 45 34 25 22 25 29 28 29 35 38 39 33 33 29 20 13 9 4 12 28 40 45 49 42 34 38 37 34 33 29 23 22 18 11 13
35 38 38 37 41 46 31 35 43 33 29 19 19 22 24 26 29 32 35 36 34 35 30 20 9 6 1 11 28 39 37 31 27 30 31 31 29 27 25 19 18 19 15 9
33 28 33 29 31 27 31 32 29 31 31 22 17 19 21 25 28 30 33 34 30 29 24 15 10 10 5 15 22 26 23 22 21 24 25 25 21 22 23 23 18 12 14 17
24 21 26 31 29 27 28 28 30 32 30 23 14 16 20 23 26 27 29 31 31 26 20 15 12 10 6 10 13 13 15 16 17 18 19 18 17 17 19 17 13 5 15 19
23 23 26 26 25 29 26 29 32 32 30 28 17 26 21 22 26 23 25 28 28 27 22 17 15 11 6 3 7 8 12 15 15 14 14 12 13 13 15 18 13 13 12 12
18 22 27 30 26 26 26 29 30 32 31 29 18 32 33 34 24 21 23 22 26 22 20 18 15 10 2 1 4 4 3 8 10 8 6 7 9 12 16 14 4 8 8 8
Wind_Direction
16 12 7 8 12 9 2 358 353 352 359 349 346 343 342 349 350 338 330 321 313 307 301 296 293 288 279 276 271 268 263 263 257 252 252 250 245 247 251 239 199 201 201 199
12 10 10 11 12 5 3 0 0 3 355 350 356 347 355 5 7 347 330 318 311 306 301 297 294 289 280 274 270 267 263 258 257 253 249 245 242 241 246 243 220 202 199 199
12 11 11 11 9 3 3 6 1 351 353 9 1 6 8 16 13 9 346 330 315 309 304 297 293 288 281 274 268 267 264 259 255 250 247 243 239 238 238 250 230 199 198 199
13 12 11 11 9 6 3 9 353 353 8 12 19 17 40 51 36 27 6 339 325 313 305 299 292 285 280 274 270 267 262 258 254 254 246 240 239 234 237 241 231 194 197 200
10 12 12 12 10 7 7 356 356 12 19 19 29 32 46 41 37 27 10 349 312 300 305 299 292 286 281 275 270 264 261 257 253 248 242 236 234 230 240 246 249 196 200 199
13 18 19 13 8 12 6 6 21 32 23 22 34 25 31 29 18 9 3 357 331 305 294 293 297 288 280 277 271 263 257 254 252 246 243 238 233 230 240 240 242 200 201 200
13 16 19 16 11 17 14 15 16 19 18 18 33 24 12 12 12 8 358 343 331 316 296 296 292 290 282 277 271 263 257 251 249 245 242 238 236 233 238 237 228 207 201 202
11 10 14 14 15 11 18 23 21 12 12 5 9 21 15 13 14 7 353 340 334 336 304 297 291 288 284 277 268 263 255 249 246 240 235 233 232 229 231 234 234 220 202 201
11 10 15 19 16 20 16 18 24 12 16 16 17 11 4 15 4 358 349 346 339 337 335 297 291 284 283 277 268 259 252 246 242 238 234 229 226 227 228 231 231 225 203 200
14 8 16 16 19 25 20 23 15 17 11 11 11 6 2 2 359 353 341 346 339 338 337 332 294 286 281 278 267 256 248 243 239 235 231 226 225 223 229 232 232 229 207 201
16 14 11 12 17 12 18 18 19 17 17 11 7 5 9 2 358 339 341 342 337 338 335 337 291 291 284 276 265 252 244 239 233 230 226 221 222 221 222 229 238 229 205 198
18 13 7 9 15 24 20 16 16 12 14 4 355 1 10 1 341 344 339 338 338 340 337 332 299 292 283 274 260 248 240 234 228 226 222 220 222 219 221 224 236 216 204 201
19 14 7 12 19 19 13 11 10 11 10 5 4 353 341 342 345 344 341 340 339 337 334 338 301 292 284 272 257 245 236 229 224 221 218 217 217 215 217 220 228 208 201 202
20 15 10 5 359 1 357 360 3 8 11 4 344 313 325 340 339 330 339 339 342 340 337 317 311 296 284 270 252 241 232 224 219 216 212 212 211 213 220 229 227 204 202 202
17 10 9 1 357 1 5 3 15 20 8 357 330 322 333 346 332 340 342 340 347 346 336 324 312 293 285 266 249 237 227 221 215 210 207 208 209 213 221 227 208 203 201 200
18 11 8 7 17 16 11 28 22 10 357 343 341 325 358 343 347 347 347 351 349 336 340 336 316 289 282 262 246 233 226 212 206 202 204 206 207 209 212 214 203 201 201 200
15 11 9 12 10 18 21 21 14 2 356 353 359 346 341 345 347 346 346 353 344 334 336 328 320 290 277 258 241 228 217 203 197 198 201 201 205 209 203 206 202 199 205 202
12 10 13 9 12 16 22 22 10 0 357 13 11 346 352 347 339 344 2 355 344 336 342 354 313 290 276 250 232 217 203 192 192 196 193 195 202 198 196 191 197 203 209 211
18 15 11 11 10 12 23 19 9 6 7 28 0 340 349 339 340 7 5 354 345 338 345 -0 314 284 263 238 219 199 189 189 193 192 191 199 202 197 197 201 204 212 215 221
22 19 15 13 13 14 19 13 8 19 19 19 338 346 326 333 338 350 341 348 344 338 337 3 334 297 261 226 193 185 182 189 185 189 195 196 194 197 199 201 211 218 222 223
11 14 11 12 12 14 18 8 13 16 9 349 348 345 331 342 351 340 345 348 344 344 342 1 8 32 104 169 179 180 184 181 180 182 186 188 193 197 203 208 219 214 211 222
12 12 13 16 14 13 14 12 15 9 0 354 347 357 339 341 344 347 352 356 349 346 347 352 18 57 122 176 181 177 170 180 179 180 181 184 189 196 201 203 212 222 218 219
12 16 13 17 12 8 7 8 13 9 6 8 330 335 342 337 342 349 354 354 350 352 354 7 11 20 73 119 137 153 159 156 158 173 182 187 193 202 208 211 220 239 224 226
13 18 14 12 17 11 4 15 12 11 11 8 320 328 328 333 337 350 355 354 347 0 11 2 5 32 99 128 149 158 170 165 163 169 177 182 186 197 211 217 224 215 222 229
9 18 12 7 4 9 20 14 11 11 12 12 315 311 318 326 331 348 349 351 350 345 349 4 355 359 45 74 152 169 164 159 157 163 173 179 195 201 211 216 228 229 224 225
17 14 12 9 13 12 6 10 10 13 12 13 10 314 321 326 326 339 340 353 347 345 344 345 353 356 355 322 39 54 127 171 158 156 159 185 197 209 213 213 181 223 225 228